This is the latest recevied weather packets stored in our database for station/object E23JWE-1. If no packets are shown the sender has not sent any weather packets the latest 10 day(s).
| Time | Temp. | Humidity | Pressure | Rain* | Wind** | Luminosity | Snow |
|---|---|---|---|---|---|---|---|
| 1777783671 | 32.78° C | 85% | 1010 hPa | - | - | 26 W/m² | - |
| 1777781845 | 32.22° C | 81% | 1010 hPa | - | - | 30 W/m² | - |
| 1777780019 | 32.22° C | 82% | 1010 hPa | - | - | 26 W/m² | - |
| 1777778194 | 32.22° C | 83% | 1010 hPa | - | - | 25 W/m² | - |
| 1777776368 | 32.22° C | 86% | 1010 hPa | - | - | 35 W/m² | - |
| 1777774542 | 31.67° C | 89% | 1011 hPa | - | - | 29 W/m² | - |
| 1777772716 | 31.11° C | 92% | 1010 hPa | - | - | 30 W/m² | - |
| 1777770891 | 31.11° C | 93% | 1010 hPa | - | - | 29 W/m² | - |
| 1777769065 | 30.56° C | 94% | 1009 hPa | - | - | 21 W/m² | - |
| 1777767239 | 31.11° C | 93% | 1009 hPa | - | - | 8 W/m² | - |
| 1777765413 | 30.56° C | 94% | 1009 hPa | - | - | 3 W/m² | - |
| 1777763587 | 30.56° C | 93% | 1009 hPa | - | - | 0 W/m² | - |
| 1777761762 | 30.56° C | 95% | 1008 hPa | - | - | 0 W/m² | - |
| 1777759936 | 28.89° C | 99% | 1008 hPa | - | - | 0 W/m² | - |
| 1777758110 | 30° C | 99% | 1008 hPa | - | - | 0 W/m² | - |
| 1777756285 | 28.89° C | 99% | 1008 hPa | - | - | 0 W/m² | - |
| 1777754459 | 30° C | 99% | 1008 hPa | - | - | 0 W/m² | - |
| 1777752636 | 31.11° C | 99% | 1007 hPa | - | - | 0 W/m² | - |
| 1777750808 | 30.56° C | 99% | 1008 hPa | - | - | 0 W/m² | - |
| 1777748983 | 31.11° C | 99% | 1008 hPa | - | - | 0 W/m² | - |
| 1777747157 | 31.11° C | 98% | 1008 hPa | - | - | 0 W/m² | - |
| 1777745332 | 31.11° C | 98% | 1008 hPa | - | - | 0 W/m² | - |
| 1777743506 | 31.11° C | 95% | 1009 hPa | - | - | 0 W/m² | - |
| 1777741681 | 31.67° C | 88% | 1009 hPa | - | - | 0 W/m² | - |
| 1777739855 | 31.11° C | 88% | 1010 hPa | - | - | 0 W/m² | - |
* Rain since midnight (hover to see other rain measurements)
** Current wind speed in m/s (hover to see current wind gust speed)